Location: Arcueil
(48.7999°N, 2.3326°E)
Time: 22:07:52
(UTC+00:00)

Envisat - Visible Passes

Search period start: 17 April 2024 00:00
Search period end: 27 April 2024 00:00
Orbit: 762 x 764 km, 98.3° (Epoch: 17 April)

Date Brightness Start Highest point End Pass type
(mag) Time Alt. Az. Time Alt. Az. Time Alt. Az.
17 Apr 4.5 02:32:00 10° NNE 02:36:32 32° E 02:41:01 10° SSE visible
17 Apr 3.6 04:10:52 10° N 04:15:34 39° WNW 04:20:16 10° SW visible
18 Apr 5.5 01:55:48 10° NE 01:58:48 16° E 02:01:48 10° SE visible
18 Apr 3.0 03:33:17 10° NNE 03:38:24 79° WNW 03:43:28 10° SSW visible
19 Apr 3.7 02:56:03 10° NNE 03:01:01 51° E 03:05:56 10° S visible
20 Apr 4.9 02:19:15 10° NE 02:23:25 25° E 02:27:34 10° SSE visible
20 Apr 3.3 03:57:45 10° N 04:02:39 50° WNW 04:07:31 10° SW visible
21 Apr 5.6 01:43:43 10° ENE 01:45:37 12° E 01:47:31 10° ESE visible
21 Apr 3.1 03:20:17 10° NNE 03:25:24 82° ESE 03:30:29 10° SSW visible
22 Apr 4.2 02:43:09 10° NNE 02:47:57 40° E 02:52:41 10° SSE visible
23 Apr 5.2 02:06:37 10° NE 02:10:17 20° E 02:13:55 10° SE visible
23 Apr 3.1 03:44:40 10° N 03:49:42 63° WNW 03:54:42 10° SSW visible
24 Apr 3.4 03:07:18 10° NNE 03:12:23 64° ESE 03:17:24 10° S visible
25 Apr 4.6 02:30:20 10° NNE 02:34:51 31° E 02:39:19 10° SSE visible
26 Apr 5.5 01:54:09 10° NE 01:57:06 15° E 02:00:02 10° ESE visible
26 Apr 3.0 03:31:36 10° NNE 03:36:43 81° WNW 03:41:46 10° SSW visible
